Location: Mitty Observatory
(35.9148°N, 88.8847°W)
Time: 04:51:16
(UTC-06:00)

LightSail 2 - Pass Details

Date: 29 January 2021
Orbit: 688 x 705 km, 24.0° (Epoch: 09 March)

Event Time Altitude Azimuth Distance (km) Brightness Sun altitude
Exits shadow 06:22:59 - 247° (WSW) 2,868 7.8 -7.5°
Reaches altitude 10° 06:25:33 10° 231° (SW) 2,125 7.3 -7.0°
Maximum altitude 06:28:51 18° 189° (S) 1,669 7.2 -6.4°
Drops below altitude 10° 06:32:08 10° 148° (SSE) 2,120 8.4 -5.8°
Sets 06:35:14 0° 129° (SE) 3,034 10.0 -5.2°
